Kissimmee, FL

2:27 AM EST on November 13, 2019 (GMT -0500)
Kissimmee Municipal

Weather History for KISM - August, 2019

Change the Weather History Date:

Saturday, August 17, 2019

  Actual Average Record
Temperature  
Mean Temperature 82 °F -  
Max Temperature 89 °F 92 °F 96 °F (1984)
Min Temperature 75 °F 72 °F 70 °F (1962)
Cooling Degree Days 17    
Growing Degree Days 32 (Base 50)    
Moisture  
Dew Point 73 °F    
Average Humidity 80    
Maximum Humidity 94    
Minimum Humidity 55    
Precipitation  
Precipitation 0.00 in - - ()
Sea Level Pressure  
Sea Level Pressure 30.09 in    
Wind  
Wind Speed 6 mph (SW)    
Max Wind Speed 14 mph    
Max Gust Speed -    
Visibility 10 miles    
Events      
Averages and records for this station are not official NWS values.
T = Trace of Precipitation, MM = Missing Value Source: NWS Daily Summary

Daily Weather History Graph

Daily Weather History Graph

Search for Another Location

Airport or City:

Astronomy

Aug. 17, 2019 Rise Set
Actual Time 6:56 AM EDT 8:02 PM EDT
Civil Twilight 6:31 AM EDT 8:27 PM EDT
Nautical Twilight 6:02 AM EDT 8:56 PM EDT
Astronomical Twilight 5:32 AM EDT 9:26 PM EDT
Moon 9:38 PM EDT (8/17) 8:38 AM EDT (8/17)
Length of Visible Light 13h 55m
Length of Day
13h 06m
Waning Gibbous, 96% of the Moon is Illuminated
Aug 17
Waning Gibbous
Aug 23
Last Quarter
Aug 30
New
Sep 5
First Quarter
Sep 14
Full

Hourly Weather History & Observations

Time (EDT) Temp. Heat Index Dew Point Humidity Pressure Visibility Wind Dir Wind Speed Gust Speed Precip Events Conditions
12:56 AM 75.9 °F - 73.0 °F 91% 30.10 in 10.0 mi South 5.8 mph - N/A   Clear
1:56 AM 75.9 °F - 73.0 °F 91% 30.09 in 10.0 mi SSW 4.6 mph - N/A   Mostly Cloudy
2:56 AM 75.0 °F - 73.0 °F 94% 30.08 in 10.0 mi South 5.8 mph - N/A   Clear
3:56 AM 75.0 °F - 73.0 °F 94% 30.06 in 10.0 mi South 6.9 mph - N/A   Clear
4:56 AM 75.0 °F - 72.0 °F 90% 30.05 in 10.0 mi SSW 4.6 mph - N/A   Clear
5:56 AM 75.0 °F - 72.0 °F 90% 30.06 in 10.0 mi South 4.6 mph - N/A   Clear
6:56 AM 75.0 °F - 72.0 °F 90% 30.07 in 10.0 mi Calm Calm - N/A   Clear
7:56 AM 75.0 °F - 73.0 °F 94% 30.10 in 10.0 mi West 4.6 mph - N/A   Clear
8:56 AM 79.0 °F - 73.9 °F 84% 30.11 in 10.0 mi SW 4.6 mph - N/A   Partly Cloudy
9:56 AM 81.0 °F 86.7 °F 75.0 °F 82% 30.11 in 10.0 mi Variable 3.5 mph - N/A   Clear
10:56 AM 84.0 °F 91.9 °F 75.0 °F 74% 30.12 in 10.0 mi South 6.9 mph - N/A   Mostly Cloudy
11:56 AM 86.0 °F 95.1 °F 75.0 °F 70% 30.12 in 10.0 mi Variable 3.5 mph - N/A   Scattered Clouds
12:56 PM 89.1 °F 99.1 °F 75.0 °F 63% 30.11 in 10.0 mi SW 13.8 mph - N/A   Mostly Cloudy
1:30 PM 82.4 °F 88.2 °F 73.4 °F 74% 30.11 in 10.0 mi WNW 11.5 mph - N/A   Scattered Clouds
1:56 PM 84.0 °F 91.2 °F 73.9 °F 72% 30.11 in 10.0 mi WNW 13.8 mph - N/A   Overcast
2:56 PM 84.0 °F 91.2 °F 73.9 °F 72% 30.09 in 10.0 mi NW 9.2 mph - N/A   Clear
3:56 PM 88.0 °F 97.5 °F 75.0 °F 65% 30.06 in 10.0 mi WNW 9.2 mph - N/A   Clear
4:56 PM 87.1 °F 92.0 °F 70.0 °F 57% 30.07 in 10.0 mi WNW 6.9 mph - N/A   Clear
5:56 PM 87.1 °F 91.3 °F 69.1 °F 55% 30.07 in 10.0 mi WSW 8.1 mph - N/A   Clear
7:56 PM 84.0 °F 89.6 °F 72.0 °F 67% 30.08 in 10.0 mi SSE 4.6 mph - N/A   Clear
8:56 PM 79.0 °F - 75.0 °F 88% 30.09 in 10.0 mi South 10.4 mph - N/A   Clear
9:32 PM 78.8 °F - 73.4 °F 83% 30.10 in 10.0 mi South 5.8 mph - N/A   Mostly Cloudy
9:43 PM 78.8 °F - 73.4 °F 83% 30.10 in 10.0 mi SSW 4.6 mph - N/A   Partly Cloudy
9:56 PM 78.1 °F - 73.0 °F 84% 30.11 in 10.0 mi South 4.6 mph - N/A   Partly Cloudy
10:56 PM 78.1 °F - 73.0 °F 84% 30.12 in 10.0 mi Calm Calm - N/A   Partly Cloudy
11:56 PM 77.0 °F - 73.0 °F 88% 30.12 in 10.0 mi WSW 3.5 mph - N/A   Clear